Sioux Falls, SD

5:42 AM CST on December 13, 2017 (GMT -0600)
Foss

Weather History for KFSD - October, 2013

Change the Weather History Date:

Thursday, October 17, 2013

  Actual Average Record
Temperature  
Mean Temperature 43 °F 48 °F  
Max Temperature 54 °F 59 °F 85 °F (1910)
Min Temperature 32 °F 36 °F 13 °F (1976)
Degree Days  
Heating Degree Days 22 18  
Month to date heating degree days 186 245  
Since 1 July heating degree days 286 449  
Cooling Degree Days 0 0  
Month to date cooling degree days 3 0  
Year to date cooling degree days 787 685  
Moisture  
Dew Point 36 °F    
Average Humidity 81    
Maximum Humidity 96    
Minimum Humidity 66    
Precipitation  
Precipitation T in 0.07 in 1.41 in (1994)
Month to date precipitation 2.60 1.39  
Year to date precipitation 23.79 23.55  
Snow  
Snow 0.00 in 0.00 in 6.10 in (1898)
Month to date snowfall 0.0 0.3  
Since 1 July snowfall 0.0 0.3  
Since 1 September snowfall 0.0 0.3  
Snow Depth 0.00 in    
Sea Level Pressure  
Sea Level Pressure 29.94 in    
Wind  
Wind Speed 9 mph (NW)    
Max Wind Speed 23 mph    
Max Gust Speed 30 mph    
Visibility 10 miles    
Events Rain    
T = Trace of Precipitation, MM = Missing Value Source: NWS Daily Summary

Daily Weather History Graph

Daily Weather History Graph

Search for Another Location

Airport or City:

Trip Planner

Search our weather history database for the weather conditions in past years. The results will help you decide how hot, cold, wet, or windy it might be!

Date:

Astronomy

Oct. 17, 2013 Rise Set
Actual Time 7:43 AM CDT 6:39 PM CDT
Civil Twilight 7:14 AM CDT 7:08 PM CDT
Nautical Twilight 6:41 AM CDT 7:42 PM CDT
Astronomical Twilight 6:08 AM CDT 8:15 PM CDT
Moon 5:55 PM CDT (10/17) 6:15 AM CDT (10/17)
Length of Visible Light 11h 53m
Length of Day
10h 55m
Waxing Gibbous, 98% of the Moon is Illuminated
Oct 17
Waxing Gibbous
Oct 18
Full
Oct 26
Last Quarter
Nov 3
New
Nov 9
First Quarter

Hourly Weather History & Observations

Time (CDT) Temp. Windchill Dew Point Humidity Pressure Visibility Wind Dir Wind Speed Gust Speed Precip Events Conditions
12:56 AM 39.0 °F 36.8 °F 34.0 °F 82% 29.93 in 10.0 mi SSW 3.5 mph - N/A   Partly Cloudy
1:56 AM 36.0 °F - 33.1 °F 89% 29.92 in 10.0 mi Calm Calm - N/A   Clear
2:56 AM 34.0 °F - 30.9 °F 89% 29.91 in 10.0 mi Calm Calm - N/A   Clear
3:56 AM 34.0 °F - 32.0 °F 92% 29.90 in 10.0 mi Calm Calm - N/A   Clear
4:56 AM 34.0 °F - 32.0 °F 92% 29.88 in 10.0 mi Calm Calm - N/A   Mostly Cloudy
5:56 AM 33.1 °F - 30.9 °F 92% 29.87 in 10.0 mi Calm Calm - N/A   Mostly Cloudy
6:56 AM 34.0 °F - 30.9 °F 89% 29.87 in 8.0 mi Calm Calm - N/A   Mostly Cloudy
7:56 AM 33.1 °F - 30.9 °F 92% 29.88 in 8.0 mi Calm Calm - N/A   Mostly Cloudy
8:56 AM 37.9 °F 35.5 °F 33.1 °F 83% 29.89 in 10.0 mi SW 3.5 mph - N/A   Scattered Clouds
9:56 AM 43.0 °F 39.5 °F 36.0 °F 76% 29.89 in 10.0 mi West 5.8 mph - N/A   Mostly Cloudy
10:56 AM 48.9 °F - 37.9 °F 66% 29.88 in 10.0 mi WNW 8.1 mph - N/A   Mostly Cloudy
11:56 AM 50.0 °F - 39.0 °F 66% 29.89 in 10.0 mi WNW 11.5 mph - N/A   Mostly Cloudy
12:56 PM 48.9 °F - 39.0 °F 69% 29.90 in 10.0 mi WNW 12.7 mph - N/A   Mostly Cloudy
1:40 PM 53.6 °F - 42.8 °F 67% 29.86 in 10.0 mi NW 13.8 mph 23.0 mph N/A   Mostly Cloudy
1:56 PM 53.1 °F - 42.1 °F 66% 29.89 in 10.0 mi NW 18.4 mph 25.3 mph N/A   Overcast
2:56 PM 46.9 °F - 41.0 °F 80% 29.92 in 10.0 mi NW 20.7 mph 25.3 mph 0.00 in Rain Light Rain
3:02 PM 46.4 °F 39.8 °F 42.8 °F 87% 29.89 in 10.0 mi NW 16.1 mph 25.3 mph 0.00 in Rain Light Rain
3:56 PM 44.1 °F 35.9 °F 37.9 °F 79% 29.96 in 10.0 mi NNW 19.6 mph 25.3 mph 0.00 in Rain Light Rain
4:38 PM 42.8 °F 33.5 °F 37.4 °F 81% 29.94 in 10.0 mi North 23.0 mph 29.9 mph 0.00 in Rain Light Rain
4:56 PM 42.1 °F 34.9 °F 37.0 °F 82% 29.98 in 10.0 mi NW 13.8 mph 23.0 mph 0.00 in Rain Light Rain
5:17 PM 42.8 °F 36.2 °F 35.6 °F 76% 29.94 in 10.0 mi NW 12.7 mph - 0.00 in   Overcast
5:44 PM 42.8 °F 37.0 °F 37.4 °F 81% 29.95 in 10.0 mi NW 10.4 mph 17.3 mph 0.00 in Rain Light Rain
5:56 PM 42.1 °F 34.5 °F 37.0 °F 82% 29.99 in 10.0 mi NW 15.0 mph 18.4 mph 0.00 in   Overcast
6:47 PM 42.8 °F 36.2 °F 37.4 °F 81% 29.97 in 10.0 mi NNW 12.7 mph - N/A   Overcast
6:56 PM 42.1 °F 34.5 °F 37.0 °F 82% 30.01 in 10.0 mi NW 15.0 mph 19.6 mph N/A   Overcast
7:10 PM 42.8 °F 36.2 °F 35.6 °F 76% 29.98 in 10.0 mi NW 12.7 mph 20.7 mph N/A   Mostly Cloudy
7:56 PM 41.0 °F 33.1 °F 35.1 °F 79% 30.04 in 10.0 mi NW 15.0 mph - N/A   Overcast
8:11 PM 41.0 °F 33.9 °F 35.6 °F 81% 30.00 in 10.0 mi NW 12.7 mph 19.6 mph N/A   Overcast
8:15 PM 41.0 °F 33.5 °F 35.6 °F 81% 30.00 in 10.0 mi NW 13.8 mph - N/A   Overcast
8:56 PM 41.0 °F 35.8 °F 35.1 °F 79% 30.04 in 10.0 mi NW 8.1 mph - N/A   Overcast
9:56 PM 41.0 °F 34.7 °F 35.1 °F 79% 30.05 in 10.0 mi NW 10.4 mph - N/A   Overcast
10:56 PM 41.0 °F 35.2 °F 35.1 °F 79% 30.04 in 10.0 mi WNW 9.2 mph - N/A   Mostly Cloudy
11:56 PM 39.9 °F 34.5 °F 34.0 °F 79% 30.04 in 10.0 mi WNW 8.1 mph - N/A   Overcast